Вернуться в каталог

STARLINK-34226

АктивенСвязьVLEO
NORAD 64494·PAYLOAD·🇺🇸 United States

Запущен Jun 23, 2025 с Cape Canaveral Space Force Station

Loading…

Ближайшие Пролёты (ближайшие 24 часа)

TLE

СвежийSource: CelesTrak SupGP

Эпоха: Sep 15, 2026, 02:36 UTC

1 64494C 25133Y   26258.10881944  .00043753  00000+0  14066-2 0  2587
2 64494  53.1595 315.7261 0001263  87.5029  24.8402 15.31689463    12

Отслеживайте STARLINK-34226 в реальном времени с AllMySat

Download on the App Store